sat.trackr.live / text

‹ back to catalog

CAS-2T & KS-1Q

NORAD 41847 · 2016-066G

PAYLOAD ACTIVE UNKNOWN

§ Identity

Operator
Country
PRC
Launch date
2016-11-09
Launch site
JSC
Launch vehicle
Mass (kg)
RCS (m²)
0.12

Purposes: comms

External: N2YO · Heavens-Above · Gunter

§ Orbital elements

Epoch: 2026-05-25T02:33:27.083808Z

Period
99.68 min
Inclination
98.3824°
Eccentricity
0.0341705
Mean motion
14.44611473 rev/d
Perigee alt
500.0 km
Apogee alt
986.6 km
Semi-major
7,121.4 km
B*
1.6160e-4
RAAN
221.1050°
Arg perigee
199.4078°
Mean anomaly
159.3837°
Rev number
50,146

§ Raw data

CAS-2T & KS-1Q1 41847U 16066G   26145.10656347  .00001086  00000+0  16160-3 0  99942 41847  98.3824 221.1050 0341705 199.4078 159.3837 14.44611473501466

JSON: /api/v1/satellites/41847 · /tle

For live sub-satellite position, see the globe view (requires WebGL).

§ Visibility from observer

Set your observer location to see the next 7 days of passes ≥ 10°. The values pass through the URL so the page stays shareable.

No JS? Fill the form by hand. The geolocation button needs JavaScript.

§ Radio — SatNOGS DB

ModeDescriptionDownlinkUplink
CW CW Telemetry 435.710 MHz
FMN FM Transponder 435.615 MHz 145.925 MHz

2 transmitters · refreshed weekly from db.satnogs.org